Погода в Ибердусе

Россия / Рязанская область     54°54′21″N   41°02′48″E
В апреле 2022 года жителям России запретили посещать сайт meteo.paraplan.net по решению Генеральной прокуратуры. Аудитория сайта уменьшилась в 10 раз. Владельцы сайта не видят смысла в поддержке погодного сервера в таких условиях. Сайт будет закрыт в октябре.
темп.,
°C
ветер,
м/с
пор.,
м/с
влажн.,
%
обл.,
%
осадки,
мм/ч
давл.,
гПа
погр.,
м
30 сентября, пт
пт3000:00+11ююв26906 0.0 1016186
03:00+9ююв2597100 0.0 101792
06:00+9ююв2598100 0.0 1017120
09:00+12ю378699 0.0 1018301
12:00+16ю4770100 0.0 1018852
15:00+17ю4770100 0.0 1018949
18:00+14ююв3992100 1.0 1018399
21:00+13ююв4109671 5.4 1018518
1 октября, сб
сб100:00+13ю3997100 0.2 1018418
03:00+13ююв2697100 0.2 1018250
06:00+13юв2598100 0.1 1017203
09:00+14ю3694100 2.5 1016295
12:00+16ю4888100 2.1 1015827
15:00+16ю499278 2.4 1014723
18:00+15ююв389675 0.4 1013357
21:00+13юв3799100 0.5 1011215
2 октября, вс
вс200:00+14ююз31098100 0.5 1009446
03:00+14ююз3998100 3.1 1008521
06:00+11юз41191100 0.1 1009639
09:00+11зюз51184100 0.1 1009838
12:00+13юз5867100 0.0 10101018
15:00+14зюз365882 0.0 10091119
18:00+12ююв2478100 0.0 1009122
21:00+10в239596 0.1 100856
3 октября, пн
пн300:00+11в41190100 0.1 1005335
03:00+12в4996100 1.7 1003262
06:00+14вюв41396100 0.3 1001492
09:00+15юв61590100 1.1 1001878
12:00+15юв71681100 0.6 1000990
15:00+15ююв91883100 1.1 9991634
18:00+12ююз71284100 0.3 10031194
21:00+10ю5118523 0.3 1006997
4 октября, вт
вт400:00+9ю5128782 0.0 1008863
03:00+9ююз5118554 0.1 10091089
06:00+7ююз4118795 0.1 1012653
09:00+9ю498174 0.1 1014633
12:00+13ююз58605 0.0 10151224
15:00+14ю586124 0.2 10151353
18:00+10ю39778 0.1 1017298
21:00+8ю311845 0.1 1018283